Change the Weather History Date:

Thursday, June 27, 2013

  Actual Average Record
Temperature  
Mean Temperature 81 °F 79 °F  
Max Temperature 88 °F 89 °F 93 °F (1998)
Min Temperature 73 °F 68 °F 61 °F (2012)
Cooling Degree Days 16 14  
Month to date cooling degree days 330 308  
Year to date cooling degree days 493 508  
Since 1 June cooling degree days 330 308  
Growing Degree Days 30 (Base 50)    
Moisture  
Dew Point 72 °F    
Average Humidity 76    
Maximum Humidity 93    
Minimum Humidity 59    
Precipitation  
Precipitation 0.40 in 0.20 in 1.52 in (1962)
Month to date precipitation 5.86 3.55  
Year to date precipitation 16.11 25.04  
Sea Level Pressure  
Sea Level Pressure 29.90 in    
Wind  
Wind Speed 8 mph (WSW)    
Max Wind Speed 22 mph    
Max Gust Speed 30 mph    
Visibility 9 miles    
Events Rain , Thunderstorm    
T = Trace of Precipitation, MM = Missing Value Source: NWS Daily Summary

Daily Weather History Graph

Daily Weather History Graph

Search for Another Location

Airport or City:

Trip Planner

Search our weather history database for the weather conditions in past years. The results will help you decide how hot, cold, wet, or windy it might be!

Date:

Astronomy

Jun. 27, 2013 Rise Set
Actual Time 6:29 AM EDT 8:52 PM EDT
Civil Twilight 6:00 AM EDT 9:21 PM EDT
Nautical Twilight 5:24 AM EDT 9:57 PM EDT
Astronomical Twilight 4:45 AM EDT 10:36 PM EDT
Moon No Moon Rise 11:15 AM EDT (6/27)
Length of Visible Light 15h 21m
Length of Day
14h 23m
Waning Gibbous, 76% of the Moon is Illuminated
Jun 27
Waning Gibbous
Jun 30
Last Quarter
Jul 8
New
Jul 15
First Quarter
Jul 22
Full

Hourly Weather History & Observations

Time (EDT) Temp. Heat Index Dew Point Humidity Pressure Visibility Wind Dir Wind Speed Gust Speed Precip Events Conditions
12:53 AM 78.1 °F - 73.0 °F 84% 29.98 in 10.0 mi Calm Calm - N/A   Clear
1:53 AM 77.0 °F - 73.0 °F 88% 29.97 in 10.0 mi SW 4.6 mph - N/A   Scattered Clouds
2:53 AM 77.0 °F - 72.0 °F 84% 29.94 in 10.0 mi SSW 5.8 mph - N/A   Clear
3:53 AM 75.9 °F - 72.0 °F 87% 29.95 in 9.0 mi SW 4.6 mph - N/A   Clear
4:53 AM 75.0 °F - 72.0 °F 90% 29.94 in 9.0 mi SSW 4.6 mph - N/A   Clear
5:53 AM 75.0 °F - 72.0 °F 90% 29.93 in 9.0 mi SSW 4.6 mph - N/A   Scattered Clouds
6:53 AM 75.0 °F - 72.0 °F 90% 29.91 in 8.0 mi SSW 5.8 mph - N/A   Clear
7:53 AM 75.9 °F - 72.0 °F 87% 29.94 in 9.0 mi SSW 4.6 mph - N/A   Partly Cloudy
8:53 AM 78.1 °F - 72.0 °F 81% 29.94 in 10.0 mi Variable 5.8 mph - N/A   Partly Cloudy
9:53 AM 81.0 °F 84.4 °F 70.0 °F 69% 29.94 in 10.0 mi West 13.8 mph 21.9 mph N/A   Partly Cloudy
10:53 AM 82.9 °F 85.8 °F 68.0 °F 60% 29.93 in 10.0 mi West 13.8 mph 19.6 mph N/A   Clear
11:53 AM 84.9 °F 89.4 °F 70.0 °F 61% 29.93 in 10.0 mi West 13.8 mph 21.9 mph N/A   Mostly Cloudy
12:53 PM 84.9 °F 90.1 °F 71.1 °F 63% 29.90 in 10.0 mi WSW 12.7 mph 20.7 mph N/A   Scattered Clouds
1:53 PM 86.0 °F 92.2 °F 72.0 °F 63% 29.88 in 10.0 mi SW 9.2 mph - N/A   Mostly Cloudy
2:53 PM 87.1 °F 94.5 °F 73.0 °F 63% 29.87 in 10.0 mi WSW 10.4 mph - N/A   Mostly Cloudy
3:53 PM 84.9 °F 92.1 °F 73.9 °F 69% 29.87 in 10.0 mi WNW 10.4 mph 24.2 mph 0.00 in   Mostly Cloudy
4:53 PM 87.1 °F 93.6 °F 72.0 °F 61% 29.84 in 10.0 mi WNW 11.5 mph - N/A   Scattered Clouds
5:53 PM 87.1 °F 93.6 °F 72.0 °F 61% 29.82 in 10.0 mi WNW 11.5 mph - N/A   Partly Cloudy
6:53 PM 88.0 °F 94.7 °F 72.0 °F 59% 29.82 in 10.0 mi West 8.1 mph - N/A   Clear
7:53 PM 86.0 °F 93.0 °F 73.0 °F 65% 29.82 in 10.0 mi West 4.6 mph - N/A   Partly Cloudy
8:53 PM 84.9 °F 91.4 °F 73.0 °F 67% 29.82 in 10.0 mi Calm Calm - N/A   Overcast
9:04 PM 80.6 °F 85.4 °F 73.4 °F 79% 29.90 in 2.0 mi WNW 19.6 mph 29.9 mph 0.09 in Rain , Thunderstorm Thunderstorms and Rain
9:14 PM 75.2 °F - 71.6 °F 89% 29.89 in 0.8 mi NW 8.1 mph 20.7 mph 0.38 in Rain , Thunderstorm Thunderstorms and Rain
9:21 PM 73.4 °F - 69.8 °F 88% 29.90 in 2.0 mi WSW 10.4 mph - 0.40 in Rain , Thunderstorm Thunderstorms and Rain
9:53 PM 73.0 °F - 70.0 °F 90% 29.83 in 10.0 mi SSW 9.2 mph - 0.40 in   Scattered Clouds
10:43 PM 73.4 °F - 71.6 °F 94% 29.90 in 10.0 mi Calm Calm - N/A   Overcast
10:53 PM 73.9 °F - 71.1 °F 91% 29.86 in 10.0 mi SE 4.6 mph - N/A   Overcast
11:53 PM 73.0 °F - 71.1 °F 93% 29.86 in 9.0 mi ENE 3.5 mph - N/A   Partly Cloudy